Regional Weather Roundup
Issued by NWS

Home | Current Version | Previous Version | Graphics & Text | Print | Product List | Glossary On
Versions: 1 2 3 4 5 6 7 8 9 10 11 12 13 14 15 16 17 18 19 20 21 22 23 24 25 26 27 28 29 30 31 32 33 34 35 36 37 38 39 40 41 42 43 44 45 46 47 48 49 50
000
ASUS45 KBOU 220707
RWRCO

WEATHER ROUNDUP FOR COLORADO
NATIONAL WEATHER SERVICE DENVER/BOULDER CO
100 AM MDT MON MAY 22 2017

NOTE: "FAIR" INDICATES FEW OR NO CLOUDS BELOW 12000 FEET WITH NO
SIGNIFICANT WEATHER AND/OR OBSTRUCTIONS TO VISIBILITY.

COZ001>005-013-030-031-220800-
...NORTHWEST COLORADO...

CITY           SKY/WX    TMP DP  RH WIND       PRES   REMARKS
CRAIG          FAIR      38  34  85 CALM      30.28S
HAYDEN         FAIR      41  34  75 E5        30.28S
MEEKER         FAIR      39  38  96 E5        30.27S
RABBIT EARS PA PTSUNNY   30  28  93 NE5       30.36F WCI  25
STEAMBOAT SPGS FAIR      37  35  93 CALM      30.29S
WALDEN           N/A     36  34  93 CALM      30.34S
$$

COZ006>008-011-220800-
...WEST CENTRAL VALLEYS...

CITY           SKY/WX    TMP DP  RH WIND       PRES   REMARKS
GRAND JUNCTION FAIR      51  40  65 N5        30.21R
MONTROSE       CLOUDY    51  42  71 N6        30.25S
EAGLE          LGT RAIN  44  42  93 NE5       30.30S
RIFLE          MOCLDY    51  44  77 CALM      30.23S
DELTA          MOCLDY    54  43  66 NE6       30.22S
NUCLA          FAIR      48  37  66 CALM      30.28S
$$

COZ017>023-064>068-220800-
...SOUTHWEST COLORADO...

CITY           SKY/WX    TMP DP  RH WIND       PRES   REMARKS
DURANGO        MOCLDY    52  32  46 NW6       30.20F
CORTEZ         FAIR      44  39  82 CALM      30.21F
PAGOSA SPRINGS FAIR      45  29  53 CALM      30.24F
TELLURIDE      MOCLDY    38  37  94 CALM      30.35S
WOLF CREEK PAS FAIR      32  23  69 S12G18    30.44F WCI  23
$$

COZ009-010-012-014-032>034-037-058>063-220800-
...CENTRAL COLORADO...

CITY           SKY/WX    TMP DP  RH WIND       PRES   REMARKS
ASPEN          LGT RAIN  41  38  89 NW6       30.29S
BUENA VISTA    CLOUDY    45  36  69 CALM      30.26S
COPPER MTN     CLOUDY    34  30  86 CALM      30.39F
BERTHOUD PASS  HAZE      23  14  68 NW6       30.40S VSB<1/4 WCI  16
COTTONWOOD PAS LGT RAIN  41  34  75 W3        30.33S
GUNNISON       FAIR      41  37  86 N7        30.30S
KREMMLING      CLOUDY    45  39  81 CALM      30.32S
LEADVILLE      FLURRIES  34  31  88 CALM      30.31F
MONARCH PASS   CLOUDY    28  28 100 SW32G39   30.48F WCI  12
SALIDA         CLOUDY    49  37  63 SE5       30.33R
SUNLIGHT       SNOW      30  30 100 NW5       30.40F VSB 1/4 WCI  25
WILKERSON PASS LGT SNOW  32  30  93 CALM      30.39F VSB 3/4
$$

COZ069>075-220800-
...SAN LUIS VALLEY/SANGRE DE CRISTO MOUNTAINS...

CITY           SKY/WX    TMP DP  RH WIND       PRES   REMARKS
ALAMOSA        FAIR      44  33  65 W7        30.23R
DEL NORTE      CLOUDY    45  33  64 S3        30.26S
LA VETA PASS   MOCLDY    34  32  93 NE12G20   30.44F WCI  25
SAGUACHE       FAIR      45  32  61 NW15G25   30.27S
$$

COZ035-036-038>040-220800-
...NORTHERN COLORADO FRONT RANGE...

CITY           SKY/WX    TMP DP  RH WIND       PRES   REMARKS
DENVER INTL AP CLOUDY    46  43  89 S8        30.24F
DMNS CITY PARK   N/A     47  45  95 S7        30.25S
AURORA         MOCLDY    45  45  99 S7        30.25F
FRONT RANGE AP CLOUDY    46  45  93 SE7       30.24F
ERIE MUNI ARPT FAIR      46  43  88 S6        30.23F
BOULDER MUN AP FAIR      46  41  81 S3        30.23F
CENTENNIAL     LGT RAIN  45  42  89 CALM      30.26F
BROOMFIELD     MOCLDY    45  43  93 S3        30.25S
FORT COLLINS   FAIR      46  44  93 CALM      30.24F
LONGMONT       FAIR      48  45  91 CALM      30.25S
$$

COZ041-046-047-076>085-087-088-220800-
...PIKES PEAK/PALMER DIVIDE AND SOUTHERN FOOTHILLS...

CITY           SKY/WX    TMP DP  RH WIND       PRES   REMARKS
COLO. SPRINGS  CLOUDY    49  41  74 NW8       30.26F
A. F. ACADEMY  LGT RAIN  44  42  93 N13       30.27S
SCHRIEVER AFB  LGT RAIN  46  42  86 N18       30.25S
CHEYENNE MTN   LGT RAIN  44  40  86 NW13G20   30.21F
ELLICOTT       LGT RAIN N/A N/A N/A NE13      30.24R
FALCON         CLOUDY    43  41  93 N12G17    30.27S
FORT CARSON    DRIZZLE   48  43  81 N15G23    30.23S
LIMON          CLOUDY    47  45  93 N8        30.25F
MONUMENT HILL  DRIZZLE   41  37  87 N7        30.30S
CANON CITY     NOT AVBL
WALSENBURG     PTSUNNY   48  45  87 N17G25    30.24R
TRINIDAD       FAIR      51  42  71 W13       30.18S
$$

COZ042>045-048>051-090-091-220800-
...NORTHEAST COLORADO...

CITY           SKY/WX    TMP DP  RH WIND       PRES   REMARKS
GREELEY ARPT   FAIR      48  44  86 SW5       30.23F
AKRON          LGT RAIN  49  45  86 SW9       30.22S
BURLINGTON     LGT RAIN  50  49  96 E6        30.19F
WRAY           LGT RAIN  52  52 100 SW10      30.20S
YUMA           DRIZZLE   48  39  71 SW7       30.21S
STERLING       FAIR      45  45 100 NW3       30.20S
HOLYOKE        NOT AVBL
FORT MORGAN    FAIR      48  46  94 SW5       30.23F
$$

COZ086-089-092>099-220800-
...SOUTHEAST COLORADO...

CITY           SKY/WX    TMP DP  RH WIND       PRES   REMARKS
PUEBLO         CLOUDY    53  45  74 N22       30.19F
LA JUNTA       FAIR      54  49  83 N8        30.15R
LAMAR          MOCLDY    51  48  89 NE7       30.12F
SPRINGFIELD      N/A     53  49  86 SW23G29   30.16R
$$



USA.gov is the U.S. government's official web portal to all federal, state and local government web resources and services.